Location: Edisto_Beach
(32.4790°N, 80.3350°W)
Time: 15:54:11
(UTC-04:00)

Amateur Radio Satellites - All Passes

Search period start: 25 July 2014 15:24
Search period end: 26 July 2014 15:24
Location: Edisto_Beach, 32.4790°N, 80.3350°W

Satellite Date Start Highest point End Downlink Frequencies (MHz)
Time Altitude Azimuth
Gurwin Techsat 1B 25 Jul 15:30:05 15:35:23 83° 76° (ENE) 15:40:43 435.225 FM
AO-27 25 Jul 15:30:30 15:35:16 36° 262° (W) 15:40:03 436.795 MHz FM
Uribyol 2 25 Jul 15:33:01 15:37:38 32° 262° (W) 15:42:15 436.500 FM
Uosat F 25 Jul 15:37:10 15:39:31 13° 65° (ENE) 15:41:52 435.120 FM
AO-7 25 Jul 15:55:44 16:03:04 36° 64° (ENE) 16:10:24 29.400 - 29.500 MHz
KITSAT 1 25 Jul 16:07:55 16:15:06 34° 54° (NE) 16:22:13 435.175 FM
OPAL 25 Jul 16:18:12 16:21:13 16° 96° (E) 16:24:13 ?
JAS-1B 25 Jul 16:31:31 16:38:55 36° 266° (W) 16:47:23 435.800 - 435.900 CW/SSB
UOSAT-12 25 Jul 16:47:28 16:51:05 22° 307° (NW) 16:54:45 437.025 FM, 437.400 FM
TMSAT-1 25 Jul 16:49:30 16:53:35 23° 264° (W) 16:57:43 436.925 FM
Uosat F 25 Jul 17:12:47 17:17:45 59° 259° (W) 17:22:44 435.120 FM
Oscar 10/S400 25 Jul 17:19:19 17:34:33 17° 153° (SSE) 17:45:55 145.825 - 145.975 CW/USB, Beacon 145.810 USB
JAS-2 25 Jul 17:21:42 17:26:20 17° 62° (ENE) 17:30:51 435.800 - 435.900 CW/SSB, 435.910 FM
Saudisat 1A 25 Jul 17:25:45 17:28:41 17° 51° (NE) 17:31:36 436.775 MHz
RS-15 25 Jul 17:39:25 17:45:45 17° 328° (NNW) 17:52:05 29.354 - 29.394 USB, Beacon 29.352 USB
AO-7 25 Jul 17:47:43 17:55:33 45° 259° (W) 18:03:28 29.400 - 29.500 MHz
OPAL 25 Jul 17:55:23 18:00:14 48° 289° (WNW) 18:05:08 ?
KITSAT 1 25 Jul 18:02:59 18:10:36 48° 251° (WSW) 18:18:11 435.175 FM
Hamsat 25 Jul 18:54:10 18:58:18 66° 259° (W) 19:02:28 145.90 MHz
JAS-2 25 Jul 19:02:34 19:10:27 86° 257° (WSW) 19:18:06 435.800 - 435.900 CW/SSB, 435.910 FM
Saudisat 1A 25 Jul 19:04:18 19:08:25 40° 247° (WSW) 19:12:29 436.775 MHz
STRAND 1 25 Jul 20:12:15 20:17:23 87° 284° (WNW) 20:22:28 ?
SO-67 25 Jul 20:20:16 20:23:26 33° 262° (W) 20:26:37 435.3500 MHz FM
HO-68 25 Jul 20:41:50 20:47:55 31° 65° (ENE) 20:53:59 435.675 MHz FM
JAS-2 25 Jul 20:52:39 20:56:02 13° 270° (W) 20:59:25 435.800 - 435.900 CW/SSB, 435.910 FM
UKube-1 25 Jul 20:54:07 20:56:34 15° 67° (ENE) 20:59:01 145.840 MHz, 145.915 MHz
Oscar 11 25 Jul 21:42:11 21:45:38 24° 71° (ENE) 21:49:06 145.825 FM, Beacon 2401.500 USB
MaSat-1 25 Jul 21:44:03 21:46:58 22° 102° (ESE) 21:50:16 437.345 MHz
FUNcube-1 25 Jul 21:55:38 21:57:05 12° 68° (ENE) 21:58:32 145.950 - 145.970 MHz USB
RS-15 25 Jul 22:15:13 22:23:57 26° 43° (NE) 22:32:50 29.354 - 29.394 USB, Beacon 29.352 USB
UKube-1 25 Jul 22:28:19 22:32:24 38° 261° (W) 22:36:30 145.840 MHz, 145.915 MHz
HO-68 25 Jul 22:28:37 22:35:20 42° 260° (W) 22:42:04 435.675 MHz FM
SO-50 25 Jul 22:59:35 23:04:13 48° 59° (ENE) 23:08:53 436.795 FM
Lituanica SAT-1 25 Jul 23:14:02 23:16:03 85° 316° (NW) 23:18:04 437.275 MHz beacon
Oscar 11 25 Jul 23:18:22 23:21:42 22° 264° (W) 23:25:04 145.825 FM, Beacon 2401.500 USB
MaSat-1 25 Jul 23:21:06 23:24:10 22° 303° (WNW) 23:27:37 437.345 MHz
FUNcube-1 25 Jul 23:28:46 23:33:03 49° 260° (W) 23:37:14 145.950 - 145.970 MHz USB
ISS 25 Jul 23:43:02 23:44:51 14° 126° (SE) 23:46:40 145.800 FM
UOSAT-12 25 Jul 23:43:40 23:44:09 10° 46° (NE) 23:44:37 437.025 FM, 437.400 FM
RS-15 26 Jul 00:26:29 00:37:38 85° 244° (WSW) 00:49:14 29.354 - 29.394 USB, Beacon 29.352 USB
Sapphire 26 Jul 00:33:24 00:35:34 12° 103° (ESE) 00:37:43 437.095 MHz 1200 baud AX-25 AFSK
SO-50 26 Jul 00:41:40 00:44:22 15° 252° (WSW) 00:47:05 436.795 FM
PCSat 26 Jul 01:04:24 01:09:01 30° 108° (ESE) 01:13:40 145.825 MHz
ISS 26 Jul 01:18:07 01:21:16 39° 320° (NW) 01:24:27 145.800 FM
UOSAT-12 26 Jul 01:20:12 01:24:56 89° 240° (WSW) 01:29:34 437.025 FM, 437.400 FM
Oscar 16 26 Jul 01:39:04 01:41:10 12° 93° (E) 01:43:16 437.025 USB, Beacon 2401.1428
AO-27 26 Jul 02:12:00 02:13:04 11° 92° (E) 02:14:07 436.795 MHz FM
Sapphire 26 Jul 02:12:59 02:18:20 65° 297° (WNW) 02:23:43 437.095 MHz 1200 baud AX-25 AFSK
Uribyol 2 26 Jul 02:13:18 02:15:09 12° 93° (E) 02:17:00 436.500 FM
JAS-1B 26 Jul 02:34:28 02:40:20 19° 88° (E) 02:45:39 435.800 - 435.900 CW/SSB
AO-40 26 Jul 02:35:17 04:20:06 32° 221° (SW) 08:23:38 Beacon 2401.320
RS-15 26 Jul 02:42:33 02:48:26 16° 260° (W) 02:54:28 29.354 - 29.394 USB, Beacon 29.352 USB
PCSat 26 Jul 02:47:37 02:52:19 30° 302° (WNW) 02:57:03 145.825 MHz
Oscar 19 26 Jul 02:47:53 02:53:02 68° 102° (ESE) 02:58:11 437.125 CW, 437.150 USB
Oscar 16 26 Jul 03:15:44 03:20:49 59° 286° (WNW) 03:25:53 437.025 USB, Beacon 2401.1428
OPAL 26 Jul 03:29:10 03:32:20 17° 65° (ENE) 03:35:29 ?
ITAMSAT 1 26 Jul 03:29:27 03:34:38 77° 103° (ESE) 03:39:47 435.822 SSB
TMSAT-1 26 Jul 03:30:03 03:33:55 20° 95° (E) 03:37:45 436.925 FM
AO-Echo 26 Jul 03:31:12 03:36:18 86° 103° (ESE) 03:41:12 ?
AO-27 26 Jul 03:47:48 03:52:57 68° 285° (WNW) 03:58:04 436.795 MHz FM
Uribyol 2 26 Jul 03:49:52 03:54:57 61° 286° (WNW) 04:00:01 436.500 FM
Gurwin Techsat 1B 26 Jul 03:51:12 03:56:20 49° 100° (E) 04:01:26 435.225 FM
AO-7 26 Jul 04:05:25 04:08:38 13° 92° (E) 04:11:50 29.400 - 29.500 MHz
JAS-1B 26 Jul 04:22:26 04:31:50 79° 286° (WNW) 04:39:49 435.800 - 435.900 CW/SSB
Oscar 19 26 Jul 04:29:54 04:31:45 12° 296° (WNW) 04:33:36 437.125 CW, 437.150 USB
OPAL 26 Jul 05:06:08 05:10:50 43° 258° (WSW) 05:15:33 ?
TMSAT-1 26 Jul 05:09:01 05:13:53 39° 288° (WNW) 05:18:45 436.925 FM
ITAMSAT 1 26 Jul 05:12:39 05:13:24 10° 297° (WNW) 05:14:10 435.822 SSB
Uosat F 26 Jul 05:25:09 05:30:08 63° 102° (ESE) 05:35:05 435.120 FM
PANSAT 26 Jul 05:25:37 05:27:39 14° 157° (SSE) 05:29:42 not established
Gurwin Techsat 1B 26 Jul 05:32:30 05:35:51 17° 294° (WNW) 05:39:11 435.225 FM
AO-7 26 Jul 05:53:54 06:02:17 85° 107° (ESE) 06:10:35 29.400 - 29.500 MHz
Oscar 10/S400 26 Jul 06:07:04 07:34:52 43° 245° (WSW) 12:37:31 145.825 - 145.975 CW/USB, Beacon 145.810 USB
JAS-1B 26 Jul 06:15:41 06:20:32 16° 306° (NW) 06:25:07 435.800 - 435.900 CW/SSB
JAS-2 26 Jul 06:21:42 06:24:15 13° 90° (E) 06:26:41 435.800 - 435.900 CW/SSB, 435.910 FM
KITSAT 1 26 Jul 06:30:43 06:38:09 42° 108° (ESE) 06:45:37 435.175 FM
Hamsat 26 Jul 06:44:42 06:48:30 30° 97° (E) 06:52:18 145.90 MHz
Lituanica SAT-1 26 Jul 07:01:11 07:03:11 79° 45° (NE) 07:05:10 437.275 MHz beacon
PANSAT 26 Jul 07:03:52 07:07:23 34° 168° (SSE) 07:10:54 not established
Uosat F 26 Jul 07:06:25 07:08:19 12° 296° (WNW) 07:10:14 435.120 FM
STRAND 1 26 Jul 07:23:27 07:28:36 84° 76° (ENE) 07:33:46 ?
Saudisat 1A 26 Jul 07:29:44 07:31:19 12° 107° (ESE) 07:32:55 436.775 MHz
MaSat-1 26 Jul 07:43:01 07:47:39 30° 60° (ENE) 07:52:02 437.345 MHz
AO-7 26 Jul 07:48:52 07:54:00 18° 303° (WNW) 07:59:08 29.400 - 29.500 MHz
SO-67 26 Jul 07:49:01 07:51:41 21° 96° (E) 07:54:20 435.3500 MHz FM
ISS 26 Jul 07:50:36 07:53:28 25° 37° (NE) 07:56:20 145.800 FM
JAS-2 26 Jul 08:04:05 08:09:56 60° 287° (WNW) 08:15:12 435.800 - 435.900 CW/SSB, 435.910 FM
Hamsat 26 Jul 08:21:18 08:24:13 18° 290° (WNW) 08:27:08 145.90 MHz
KITSAT 1 26 Jul 08:26:08 08:33:30 38° 305° (NW) 08:40:56 435.175 FM
PANSAT 26 Jul 08:43:36 08:47:19 46° 181° (S) 08:51:01 not established
Saudisat 1A 26 Jul 09:06:07 09:10:24 51° 301° (WNW) 09:14:44 436.775 MHz
MaSat-1 26 Jul 09:20:27 09:24:53 28° 257° (WSW) 09:29:03 437.345 MHz
SO-67 26 Jul 09:22:25 09:24:33 16° 289° (WNW) 09:26:41 435.3500 MHz FM
ISS 26 Jul 09:27:23 09:30:06 23° 231° (SW) 09:32:48 145.800 FM
PCSat 26 Jul 09:59:39 10:00:30 10° 48° (NE) 10:01:20 145.825 MHz
HO-68 26 Jul 10:00:57 10:07:49 49° 101° (E) 10:14:38 435.675 MHz FM
UKube-1 26 Jul 10:20:59 10:25:13 49° 100° (E) 10:29:24 145.840 MHz, 145.915 MHz
PANSAT 26 Jul 10:23:49 10:27:13 30° 194° (SSW) 10:30:37 not established
Sapphire 26 Jul 11:05:48 11:10:49 37° 59° (ENE) 11:15:48 437.095 MHz 1200 baud AX-25 AFSK
Oscar 11 26 Jul 11:09:25 11:13:45 87° 283° (WNW) 11:18:06 145.825 FM, Beacon 2401.500 USB
FUNcube-1 26 Jul 11:22:31 11:26:28 41° 99° (E) 11:30:27 145.950 - 145.970 MHz USB
PCSat 26 Jul 11:39:15 11:44:42 83° 65° (ENE) 11:50:06 145.825 MHz
HO-68 26 Jul 11:49:23 11:55:06 27° 296° (WNW) 12:00:50 435.675 MHz FM
UKube-1 26 Jul 11:59:22 12:00:56 12° 294° (WNW) 12:02:30 145.840 MHz, 145.915 MHz
PANSAT 26 Jul 12:05:46 12:06:53 11° 205° (SSW) 12:08:01 not established
RS-15 26 Jul 12:36:09 12:43:34 21° 102° (ESE) 12:50:48 29.354 - 29.394 USB, Beacon 29.352 USB
Sapphire 26 Jul 12:49:45 12:53:57 23° 254° (WSW) 12:58:08 437.095 MHz 1200 baud AX-25 AFSK
Oscar 16 26 Jul 12:52:27 12:54:23 12° 64° (ENE) 12:56:20 437.025 USB, Beacon 2401.1428
FUNcube-1 26 Jul 13:00:46 13:02:29 12° 292° (WNW) 13:04:12 145.950 - 145.970 MHz USB
SO-50 26 Jul 13:10:23 13:14:36 44° 114° (ESE) 13:18:53 436.795 FM
JAS-1B 26 Jul 13:15:44 13:18:56 12° 52° (NE) 13:22:14 435.800 - 435.900 CW/SSB
AO-27 26 Jul 13:25:53 13:27:35 12° 64° (ENE) 13:29:17 436.795 MHz FM
Uribyol 2 26 Jul 13:27:12 13:29:20 13° 64° (ENE) 13:31:29 436.500 FM
Oscar 19 26 Jul 14:00:14 14:05:15 61° 74° (ENE) 14:10:18 437.125 CW, 437.150 USB
Oscar 16 26 Jul 14:28:04 14:33:08 65° 258° (WSW) 14:38:13 437.025 USB, Beacon 2401.1428
AO-Echo 26 Jul 14:38:51 14:44:04 69° 75° (ENE) 14:49:22 ?
ITAMSAT 1 26 Jul 14:42:47 14:47:58 73° 75° (ENE) 14:53:11 435.822 SSB
RS-15 26 Jul 14:43:21 14:54:37 82° 298° (WNW) 15:05:36 29.354 - 29.394 USB, Beacon 29.352 USB
TMSAT-1 26 Jul 14:46:38 14:50:31 21° 68° (ENE) 14:54:25 436.925 FM
SO-50 26 Jul 14:52:33 14:55:22 16° 310° (NW) 14:58:13 436.795 FM
JAS-1B 26 Jul 14:59:00 15:07:16 63° 71° (ENE) 15:16:45 435.800 - 435.900 CW/SSB
AO-7 26 Jul 15:00:27 15:04:13 14° 54° (NE) 15:07:59 29.400 - 29.500 MHz
AO-27 26 Jul 15:01:14 15:06:26 72° 258° (WSW) 15:11:39 436.795 MHz FM
Uribyol 2 26 Jul 15:03:02 15:08:12 65° 258° (WSW) 15:13:23 436.500 FM
Gurwin Techsat 1B 26 Jul 15:07:44 15:12:49 49° 73° (ENE) 15:17:55 435.225 FM
